Location: Auckland
(36.8670°S, 174.7670°E)
Time: 10:55:57
(UTC+12:00)

A-11 Canister half - Pass Details

Date: 23 July 2019
Orbit: 1526 x 1682 km, 47.3° (Epoch: 24 August)

Event Time Altitude Azimuth Distance (km) Brightness Sun altitude
Rises 10:46:50 0° 265° (W) 4,718 11.3 28.2°
Reaches altitude 10° 10:50:05 10° 258° (WSW) 3,753 10.8 28.5°
Maximum altitude 10:59:10 46° 186° (S) 2,043 9.6 29.3°
Drops below altitude 10° 11:08:34 10° 114° (ESE) 3,873 11.2 30.0°
Sets 11:11:58 0° 108° (ESE) 4,880 11.7 30.2°
